"Pseudo-MPEC" for C0298P2

Created 2019 Jan 17 12:18:09 UT using Find_Orb

Click here for an explanation of pseudo-MPECs

 
 Astrometry: 
     C0298P2  C2019 01 06;rt50W'(/QJ'Al$mQwJ^SbKHJq90afAstrometry#8llHJMP3%:FF51
     C0298P2  C2019 01 06WZa%*Ysn@_fwwYDy]q)redacted;pP)dP*7w\bor?OYyYlr'gWndF51
     C0298P2  C2019 01 06jZdsx;W689Ra1K6EJIclick7BQ$SyC;L+6?lJ*@yw87kDSVpi!@mF51
     C0298P2  C2019 01 09.40367 08 48 49.27 +51 47 48.4    ~19BI 20.6 GVNEOCPG96
     C0298P2  C2019 01 09.40900 08 48 48.73 +51 47 55.6    ~19BI 21.3 GVNEOCPG96
     C0298P2  C2019 01 09.41427 08 48 48.34 +51 48 01.8    ~19BI       VNEOCPG96
     C0298P2  C2019 01 09.41955 08 48 47.78 +51 48 07.8    ~19BI       VNEOCPG96
     C0298P2  C2019 01 09.49379 08 48 41.47 +51 49 32.2    ~19DI 22.4 GVNEOCPG96
     C0298P2  C2019 01 09.49622 08 48 41.27 +51 49 34.8    ~19DI 21.5 GVNEOCPI52
     C0298P2  C2019 01 09.49655 08 48 41.17 +51 49 35.4    ~19DI 22.0 GVNEOCPG96
     C0298P2  C2019 01 09.49791 08 48 41.08 +51 49 36.7    ~19DI 23.2 GVNEOCPI52
     C0298P2  C2019 01 09.49879 08 48 40.97 +51 49 38.0    ~19DI 22.7 GVNEOCPG96
     C0298P2  C2019 01 09.49961 08 48 40.99 +51 49 39.0    ~19DI 22.1 GVNEOCPI52
     C0298P2  C2019 01 09.50105 08 48 40.78 +51 49 39.2    ~19DI 22.4 GVNEOCPG96
     C0298P2  C2019 01 09.50127 08 48 40.80 +51 49 40.9    ~19DI 21.7 GVNEOCPI52
     C0298P2  C2019 01 17:fIh9?[cIU?RXnwVGTLj/G]d[N4XB[BCtbX7e3hereWh?i\=y]KLV06
     C0298P2  C2019 01 17Fe%%-Z:*#il5Zfor1HkSg4i*4L/`Tj3e[$eF]D-=_7tN]/bI1TyhV06
     C0298P2  C2019 01 177OEr-1rkUYbnq7v._W294e[ZH^`og,*fX7Q*(-dEU5\RC\7!n*5YV06
     C0298P2  C2019 01 17$P8b=JyexplanationHU\Us'e.==+y.,Hlu[WDq5.#m^;UUeT$tjV06

Station data:
(F51) Pan-STARRS 1, Haleakala  (N20.707235 W156.255910)  US/Hawaii.
   Observers N. Primak, A. Schultz, S. Watters, J. Thiel, T. Goggia. Measurer
   PS1 Science Consortium. 1.8-m Ritchey-Chrétien + CCD.
(G96) Mt. Lemmon Survey  (N32.442754 W110.788720)  US/Arizona.  Observers B.
   M. Africano, E. J. Christensen, G. A. Farneth, D. C. Fuls, A. R. Gibbs, A.
   D. Grauer, H. Groeller, J. A. Johnson, R. A. Kowalski, S. M. Larson, G. J.
   Leonard, R. L. Seaman, F. C. Shelly. 1.5-m reflector + 10K CCD.
(I52) Steward Observatory, Mt. Lemmon Station  (N32.442547 W110.788920)
   US/Arizona.  Observers B. M. Africano, E. J. Christensen, G. A. Farneth,
   D. C. Fuls, A. R. Gibbs, A. D. Grauer, H. Groeller, J. A. Johnson, R. A.
   Kowalski, S. M. Larson, G. J. Leonard, R. L. Seaman, F. C. Shelly. 1.0-m
   reflector + CCD.
(V06) Catalina Sky Survey-Kuiper  (N32.416847 W110.732550)  US/Arizona.
   Observers B. M. Africano, E. J. Christensen, G. A. Farneth, D. C. Fuls, A.
   R. Gibbs, A. D. Grauer, H. Groeller, J. A. Johnson, R. A. Kowalski, S. M.
   Larson, G. J. Leonard, R. L. Seaman, F. C. Shelly. 1.55-m reflector + CCD.

Orbital elements:  C0298P2
   Perihelion 2018 Jun 8.857191 +/- 0.453 TT = 20:34:21 (JD 2458278.357191)
Epoch 2019 Jan 17.0 TT = JDT 2458500.5   Earth MOID: 0.7686   AutoNEOCP
M  82.27161362 +/- 0.18             (J2000 ecliptic)
n   0.37035461 +/- 0.000315         Peri.  315.36718 +/- 0.13
a   1.92039637 +/- 0.00109          Node    69.54345 +/- 0.042
e   0.1021306 +/- 0.000732          Incl.   23.16366 +/- 0.025
P   2.66/972.02d           H 19.7   G  0.15   U  7.3  
q 1.72426510 +/- 0.000707    Q 2.11652764 +/- 0.00253
From 19 observations 2019 Jan. 6-17; mean residual 0".35
Residuals in arcseconds: 
190106 F51  .01-  .03-    190109 G96  .26+  .18+    190109 I52  .01-  .46+    
190106 F51  .04-  .01+    190109 I52  .33+  .04+    190117 V06  .29+  .07+    
190106 F51  .05+  .04+    190109 G96  .33-  .27+    190117 V06  .07-  .13-    
190109 G96  .43+  1.2-    190109 I52  .08-  .04+    190117 V06  .15-  .07+    
190109 G96  .29-  .12-    190109 G96  .41-  .35+    190117 V06  .07-  .02-    
190109 G96  .33+  .05+    190109 I52  .43+  .43+    
190109 G96  .62-  .01+    190109 G96  .37-  1.0-    

Ephemerides (geocentric):
Date (UTC) HH   RA              Dec         delta   r     elong  mag " sig PA
---- -- -- --  -------------   -----------  ------ ------ -----  --- ---- ---
2019 01 17 12  08 36 18.069   +54 06 01.29  1.0194 1.9146 145.8 22.1 .088  48
2019 01 17 13  08 36 13.820   +54 06 38.02  1.0195 1.9146 145.8 22.1 .092  48
2019 01 17 14  08 36 09.568   +54 07 14.68  1.0196 1.9147 145.8 22.1 .097  48
2019 01 17 15  08 36 05.313   +54 07 51.27  1.0197 1.9148 145.8 22.1 .101  48
2019 01 17 16  08 36 01.055   +54 08 27.80  1.0198 1.9148 145.8 22.1 .106  48
2019 01 17 17  08 35 56.795   +54 09 04.26  1.0199 1.9149 145.8 22.1 .111  48
2019 01 17 18  08 35 52.531   +54 09 40.66  1.0200 1.9149 145.8 22.1 .116  47
2019 01 17 19  08 35 48.264   +54 10 16.99  1.0201 1.9150 145.7 22.1 .121  47
2019 01 17 20  08 35 43.995   +54 10 53.25  1.0202 1.9150 145.7 22.1 .125  47
2019 01 17 21  08 35 39.722   +54 11 29.45  1.0203 1.9151 145.7 22.1 .130  47
2019 01 17 22  08 35 35.447   +54 12 05.58  1.0203 1.9151 145.7 22.1 .135  47
2019 01 17 23  08 35 31.169   +54 12 41.65  1.0204 1.9152 145.7 22.1 .140  47
2019 01 18 00  08 35 26.887   +54 13 17.64  1.0205 1.9152 145.7 22.1 .145  47
2019 01 18 01  08 35 22.603   +54 13 53.58  1.0206 1.9153 145.7 22.1 .150  46
2019 01 18 02  08 35 18.317   +54 14 29.44  1.0207 1.9153 145.7 22.1 .156  46
2019 01 18 03  08 35 14.027   +54 15 05.24  1.0208 1.9154 145.7 22.1 .161  46
2019 01 18 04  08 35 09.734   +54 15 40.98  1.0209 1.9154 145.7 22.1 .166  46
2019 01 18 05  08 35 05.439   +54 16 16.65  1.0210 1.9155 145.7 22.1 .171  46
2019 01 18 06  08 35 01.141   +54 16 52.25  1.0211 1.9155 145.7 22.1 .176  46
2019 01 18 07  08 34 56.840   +54 17 27.78  1.0212 1.9156 145.6 22.1 .182  46
2019 01 18 08  08 34 52.537   +54 18 03.25  1.0213 1.9157 145.6 22.1 .187  46
2019 01 18 09  08 34 48.231   +54 18 38.65  1.0214 1.9157 145.6 22.1 .192  46
2019 01 18 10  08 34 43.922   +54 19 13.98  1.0215 1.9158 145.6 22.1 .198  46
2019 01 18 11  08 34 39.610   +54 19 49.25  1.0216 1.9158 145.6 22.1 .203  45
2019 01 18 12  08 34 35.296   +54 20 24.45  1.0217 1.9159 145.6 22.1 .209  45
2019 01 18 13  08 34 30.979   +54 20 59.59  1.0218 1.9159 145.6 22.1 .214  45
2019 01 18 14  08 34 26.659   +54 21 34.65  1.0219 1.9160 145.6 22.1 .220  45
2019 01 18 15  08 34 22.337   +54 22 09.65  1.0220 1.9160 145.6 22.1 .225  45
2019 01 18 16  08 34 18.012   +54 22 44.58  1.0221 1.9161 145.6 22.1 .231  45
2019 01 18 17  08 34 13.684   +54 23 19.45  1.0222 1.9161 145.6 22.1 .236  45
2019 01 18 18  08 34 09.354   +54 23 54.25  1.0223 1.9162 145.6 22.1 .242  45
2019 01 18 19  08 34 05.021   +54 24 28.98  1.0224 1.9162 145.5 22.1 .248  45
2019 01 18 20  08 34 00.686   +54 25 03.64  1.0225 1.9163 145.5 22.1 .253  45
2019 01 18 21  08 33 56.348   +54 25 38.24  1.0226 1.9163 145.5 22.1 .259  45
2019 01 18 22  08 33 52.008   +54 26 12.77  1.0227 1.9164 145.5 22.1 .265  44
2019 01 18 23  08 33 47.665   +54 26 47.23  1.0228 1.9164 145.5 22.1 .271  44
2019 01 19 00  08 33 43.320   +54 27 21.62  1.0229 1.9165 145.5 22.1 .277  44
2019 01 19 01  08 33 38.972   +54 27 55.95  1.0230 1.9166 145.5 22.1 .283  44
2019 01 19 02  08 33 34.622   +54 28 30.21  1.0231 1.9166 145.5 22.1 .289  44
2019 01 19 03  08 33 30.269   +54 29 04.40  1.0232 1.9167 145.5 22.1 .295  44
2019 01 19 04  08 33 25.914   +54 29 38.53  1.0233 1.9167 145.5 22.1 .301  44
2019 01 19 05  08 33 21.556   +54 30 12.58  1.0234 1.9168 145.4 22.1 .307  44
2019 01 19 06  08 33 17.196   +54 30 46.57  1.0235 1.9168 145.4 22.1 .313  44
2019 01 19 07  08 33 12.834   +54 31 20.49  1.0236 1.9169 145.4 22.1 .319  44
2019 01 19 08  08 33 08.469   +54 31 54.35  1.0237 1.9169 145.4 22.1 .325  44
2019 01 19 09  08 33 04.102   +54 32 28.13  1.0239 1.9170 145.4 22.1 .332  44
2019 01 19 10  08 32 59.732   +54 33 01.85  1.0240 1.9170 145.4 22.1 .338  44
2019 01 19 11  08 32 55.360   +54 33 35.50  1.0241 1.9171 145.4 22.1 .344  43